Regional Weather Roundup
Issued by NWS

Home | Current Version | Previous Version | Graphics & Text | Print | Product List | Glossary On
Versions: 1 2 3 4 5 6 7 8 9 10 11 12 13 14 15 16 17 18 19 20 21 22 23 24 25 26 27 28 29 30 31 32 33 34 35 36 37 38 39 40 41 42 43 44 45 46 47 48 49 50
000
ASUS43 KIND 202309
RWRIN

WEATHER ROUNDUP FOR INDIANA
NATIONAL WEATHER SERVICE INDIANAPOLIS IN
700 PM EDT MON OCT 20 2014

NOTE: "FAIR" INDICATES FEW OR NO CLOUDS BELOW 12,000 FEET WITH NO
SIGNIFICANT WEATHER AND/OR OBSTRUCTIONS TO VISIBILITY.

* - STATION DOES NOT REPORT WEATHER SUCH AS PRECIPITATION OR FOG.

+ - STATION NOT QUALITY CONTROLLED BY THE NATIONAL WEATHER SERVICE.
    USE DATA WITH CAUTION...ESPECIALLY DEWPOINT AND RELATIVE
    HUMIDITY OBSERVATIONS.

INZ001>003-010>013-019-020-210000-
NORTHWEST INDIANA

CITY           SKY/WX    TMP DP  RH WIND       PRES   REMARKS
GARY /AIRPORT/ MOCLDY    55  48  76 N12       29.94R
KNOX *+        CLOUDY    55  46  72 N12       29.90R
LA PORTE +     CLOUDY    55  50  85 N14       29.92R
MICHIGAN CITY+ CLOUDY    52  45  76 N8        29.93R
MONTICELLO +   CLOUDY    61  48  61 N6        29.87R
RENSSELAER +   MOCLDY    59  50  72 N12G20    29.90R
VALPARAISO     CLOUDY    53  48  83 N9        29.92R

$$

LMZ046-743>745-210000-
SOUTHERN LAKE MICHIGAN

STATION/POSITION TIME  TEMP WIND        PRES
                       AIR  DIR/SP/G
                 (UTC) (F)  (DEG/KT/KT) (MB)
MICHIGAN CITY    2300   54  350/ 21/ 23   N/A

$$

INZ004-005-014>016-021>024-210000-
NORTH CENTRAL INDIANA

CITY           SKY/WX    TMP DP  RH WIND       PRES   REMARKS
ELKHART        CLOUDY    54  48  82 NW6       29.90R
GOSHEN         CLOUDY    55  48  77 NW14      29.88R
LOGANSPORT +   MOCLDY    59  45  58 N10       29.88R
PERU/GRISSOM   MOCLDY    60  51  70 N10       29.87R
ROCHESTER +    MOCLDY    59  48  67 NW13      29.89R
SOUTH BEND     CLOUDY    54  48  80 N9        29.91R
WARSAW +       CLOUDY    55  46  71 NW12      29.88R

$$

INZ006>009-017-018-025>027-210000-
NORTHEAST INDIANA

CITY           SKY/WX    TMP DP  RH WIND       PRES   REMARKS
ANGOLA *+      CLOUDY    55  48  76 W6        29.86R
AUBURN +       CLOUDY    57  46  67 NW9       29.86R
FORT WAYNE     MOCLDY    59  48  67 NW5       29.86R
HUNTINGTON +   CLOUDY    59  48  67 NW6       29.86R

$$

INZ028-029-035-036-043>045-051>053-210000-
WEST CENTRAL INDIANA

CITY           SKY/WX    TMP DP  RH WIND       PRES   REMARKS
CRAWFORDSVL +  CLEAR     59  45  58 NW7       29.89
GREENCASTLE +  MOCLDY    63  45  51 W6        29.89R
LAFAYETTE      CLEAR     60  47  61 NW7       29.88R
TERRE HAUTE    CLEAR     65  44  46 NW9       29.90R

$$

INZ030>032-037>040-046>048-054>057-064-065-210000-
CENTRAL INDIANA

CITY           SKY/WX    TMP DP  RH WIND       PRES   REMARKS
CP ATTERBURY + MOCLDY    64  46  52 W3        29.88R
FRANKFORT +    MOCLDY    62  48  60 W7        29.89R
GREENWOOD *+   PTCLDY    63  41  45 W7        29.88R
INDIANAPOLIS   PTCLDY    63  44  50 W9        29.87R
-EAGLE CREEK   PTCLDY    63  47  55 NW12      29.87R
KOKOMO *+      CLOUDY    61  46  59 N9        29.87R
MARION +       PTCLDY    60  46  60 NW6       29.86R
MT COMFORT *+  PTCLDY    61  37  41 NW7       29.87R
SHELBYVILLE    PTCLDY    65  46  50 W9        29.86R
ZIONSVILLE +   PTCLDY    61  46  56 W6        29.88R

$$

INZ033-034-041-042-049-050-058-059-210000-
EAST CENTRAL INDIANA

CITY           SKY/WX    TMP DP  RH WIND       PRES   REMARKS
MUNCIE         PTCLDY    60  48  64 NW7       29.85R

$$

INZ060-061-067>069-081>083-085>088-210000-
SOUTHWEST INDIANA

CITY           SKY/WX    TMP DP  RH WIND       PRES   REMARKS
EVANSVILLE     MOCLDY    69  53  56 W5        29.91R
HUNTINGBURG *+ PTCLDY    64  52  63 W8        29.90R
WASHINGTON +   CLEAR     64  47  52 NW7       29.89R

$$

INZ062-063-066-070>080-084-089>092-210000-
SOUTH CENTRAL AND SOUTHEAST INDIANA

CITY           SKY/WX    TMP DP  RH WIND       PRES   REMARKS
BEDFORD +      MOCLDY    64  50  59 W5        29.88
BLOOMINGTON    CLEAR     65  43  44 NW6       29.89R
NORTH VERNON + CLEAR     63  48  59 W3        29.89

$$



USA.gov is the U.S. government's official web portal to all federal, state and local government web resources and services.